EW6058 Weather Reports


Display with metric or nautical units.
time (UTC)temp
F
wind
direction
speed
MPH
gust
MPH
rain 1hr
in
rain 24hr
in
rain mn
in
humidity
%
barometer
mb
20260507151510 56 236 0.0 2.0 0.01 0.51 0.38 88 1008.5
20260507151004 56 277 1.0 2.0 0.01 0.51 0.38 91 1008.5
20260507150507 55 216 1.0 2.0 0.01 0.51 0.38 87 1008.6
20260507150015 55 217 1.0 2.0 0.01 0.51 0.38 91 1008.5
20260507145507 54 221 0.0 2.0 0.01 0.51 0.38 90 1008.2
20260507145011 54 269 0.0 2.0 0.01 0.51 0.38 90 1008.2
20260507144523 53 223 1.0 3.0 0.01 0.51 0.38 90 1008.3
20260507144007 53 217 1.0 3.0 0.01 0.51 0.38 90 1008.3
20260507143507 53 216 0.0 3.0 0.00 0.50 0.37 91 1008.5
20260507143027 53 242 1.0 3.0 0.00 0.50 0.37 92 1008.6
20260507142508 52 263 0.0 3.0 0.00 0.50 0.37 91 1008.4
20260507142008 52 221 0.0 3.0 0.00 0.50 0.37 94 1008.5
20260507141531 52 226 0.0 2.0 0.00 0.50 0.37 95 1008.5
20260507141009 51 231 0.0 2.0 0.00 0.50 0.37 94 1008.6
20260507140504 50 210 0.0 2.0 0.00 0.50 0.37 94 1008.7
20260507140019 50 222 0.0 2.0 0.00 0.50 0.37 94 1008.6
20260507135505 50 227 0.0 2.0 0.00 0.50 0.37 94 1008.5
20260507135007 50 231 0.0 2.0 0.00 0.50 0.37 94 1008.5
20260507134518 50 237 0.0 2.0 0.00 0.50 0.37 94 1008.3
20260507134009 50 219 0.0 2.0 0.00 0.50 0.37 94 1008.3
20260507133509 50 219 0.0 2.0 0.00 0.50 0.37 95 1008.7
20260507133027 50 198 0.0 2.0 0.01 0.50 0.37 95 1008.6
20260507132508 49 198 0.0 2.0 0.02 0.50 0.37 96 1008.3
20260507132003 49 231 0.0 2.0 0.02 0.50 0.37 96 1008.4
20260507131515 49 246 0.0 2.0 0.02 0.50 0.37 96 1008.1
20260507131008 48 228 0.0 2.0 0.02 0.50 0.37 96 1008.1
20260507130508 48 228 0.0 2.0 0.02 0.50 0.37 96 1008.1
20260507130010 48 228 0.0 2.0 0.02 0.50 0.37 95 1008.3
20260507125507 48 228 0.0 2.0 0.02 0.50 0.37 95 1008.2
20260507125005 47 228 0.0 2.0 0.02 0.50 0.37 95 1008.5
20260507124520 47 228 0.0 2.0 0.02 0.50 0.37 95 1008.8
20260507124011 47 217 0.0 2.0 0.02 0.50 0.37 95 1008.6
20260507123509 47 217 0.0 2.0 0.03 0.50 0.37 95 1008.7
20260507123022 47 217 0.0 2.0 0.02 0.49 0.36 94 1008.8
20260507122508 48 217 1.0 2.0 0.01 0.48 0.35 95 1008.7
20260507122009 48 226 0.0 3.0 0.01 0.48 0.35 95 1008.6
20260507121522 48 226 0.0 3.0 0.01 0.48 0.35 95 1008.6
20260507121010 48 229 0.0 2.0 0.01 0.48 0.35 95 1008.3
20260507120502 48 229 0.0 2.0 0.01 0.48 0.35 95 1008.2
20260507120008 48 229 0.0 2.0 0.01 0.48 0.35 95 1008.2
20260507115506 48 200 0.0 3.0 0.02 0.48 0.35 95 1008.6
20260507115005 48 221 0.0 3.0 0.02 0.48 0.35 95 1008.6
20260507114512 48 233 0.0 2.0 0.02 0.48 0.35 95 1008.3
20260507114009 48 266 0.0 3.0 0.02 0.48 0.35 95 1008.3
20260507113505 49 217 1.0 3.0 0.02 0.47 0.34 95 1008.3
20260507113036 49 224 1.0 3.0 0.02 0.47 0.34 95 1008.5
20260507112507 49 218 1.0 4.0 0.02 0.47 0.34 95 1008.7
20260507112010 49 225 2.0 4.0 0.03 0.47 0.34 95 1008.8
20260507111528 50 226 1.0 2.0 0.03 0.47 0.34 96 1008.5
20260507111010 50 218 1.0 2.0 0.03 0.47 0.34 96 1008.1
20260507110508 50 226 0.0 2.0 0.03 0.47 0.34 95 1007.6
20260507110024 50 229 0.0 3.0 0.03 0.47 0.34 95 1007.4
20260507105509 50 237 1.0 3.0 0.02 0.46 0.33 95 1007.4
20260507105010 50 281 0.0 2.0 0.02 0.46 0.33 95 1007.2
20260507104510 50 231 0.0 2.0 0.03 0.46 0.33 95 1007.4
20260507104010 50 210 0.0 4.0 0.03 0.46 0.33 95 1007.4
20260507103506 50 247 0.0 4.0 0.02 0.45 0.32 95 1007.6
20260507103020 51 229 1.0 4.0 0.03 0.45 0.32 95 1007.6
20260507102506 51 232 0.0 4.0 0.05 0.45 0.32 96 1007.3
20260507102008 51 222 1.0 4.0 0.05 0.44 0.31 96 1007.3
20260507101520 51 222 1.0 4.0 0.12 0.44 0.31 96 1007.3
20260507101007 51 222 1.0 4.0 0.15 0.44 0.31 96 1007.0
20260507100508 51 227 1.0 4.0 0.16 0.44 0.31 96 1006.6
20260507100022 52 243 1.0 3.0 0.18 0.44 0.31 96 1006.7
20260507095510 52 285 0.0 3.0 0.18 0.44 0.31 96 1006.7
20260507095012 52 221 1.0 3.0 0.18 0.44 0.31 96 1006.8
20260507094526 52 232 1.0 3.0 0.18 0.43 0.30 96 1006.7
20260507094007 52 212 1.0 4.0 0.19 0.43 0.30 96 1006.4
20260507093510 52 223 1.0 4.0 0.20 0.43 0.30 96 1006.5
20260507093012 52 229 0.0 2.0 0.26 0.42 0.29 96 1006.6
20260507092510 52 221 0.0 2.0 0.26 0.40 0.27 96 1006.7
20260507092008 52 221 1.0 3.0 0.25 0.39 0.26 97 1006.9
20260507091515 52 216 1.0 3.0 0.18 0.32 0.19 96 1006.8
20260507091010 52 210 0.0 2.0 0.15 0.29 0.16 96 1006.6
20260507090511 51 210 0.0 2.0 0.14 0.28 0.15 96 1006.4
20260507090019 51 210 0.0 2.0 0.12 0.26 0.13 96 1006.6
20260507085508 51 203 0.0 2.0 0.12 0.26 0.13 96 1006.7
20260507085010 51 187 0.0 3.0 0.12 0.26 0.13 96 1006.7
20260507084529 51 216 0.0 3.0 0.11 0.25 0.12 96 1006.9
20260507084009 51 210 0.0 3.0 0.10 0.24 0.11 96 1007.0
20260507083509 52 136 0.0 2.0 0.09 0.23 0.10 96 1007.1
20260507083028 52 167 1.0 3.0 0.03 0.16 0.03 96 1007.7
20260507082507 52 198 1.0 3.0 0.01 0.14 0.01 96 1007.3
20260507082011 52 210 2.0 3.0 0.01 0.14 0.01 96 1007.0
20260507081520 52 198 1.0 2.0 0.01 0.14 0.01 96 1006.7
20260507081006 52 161 0.0 2.0 0.01 0.14 0.01 96 1006.3
20260507080508 52 161 0.0 2.0 0.01 0.14 0.01 96 1005.9
20260507080019 52 161 0.0 2.0 0.01 0.14 0.01 96 1005.7
20260507075506 52 161 0.0 2.0 0.01 0.14 0.01 96 1005.9
20260507075010 52 161 0.0 1.0 0.01 0.14 0.01 96 1006.0
20260507074522 52 161 0.0 0.0 0.01 0.14 0.01 96 1006.2
20260507073005 52 161 0.0 2.0 0.00 0.13 0.00 96 1006.1
20260507072504 52 161 0.0 2.0 0.00 0.13 0.00 96 1006.2
20260507072003 52 161 0.0 2.0 0.00 0.13 0.00 96 1006.3
20260507071506 52 161 0.0 2.0 0.00 0.13 0.00 96 1006.2
20260507071003 52 161 0.0 2.0 0.00 0.13 0.00 96 1006.3
20260507070504 52 158 0.0 3.0 0.00 0.13 0.00 96 1006.6
20260507070012 52 168 0.0 3.0 0.00 0.13 0.00 96 1006.6
20260507065505 52 197 0.0 2.0 0.00 0.13 0.00 96 1006.6
20260507065003 52 197 1.0 2.0 0.00 0.13 0.00 96 1006.6
20260507064504 52 198 1.0 2.0 0.00 0.13 0.00 96 1006.5
20260507064003 52 169 0.0 2.0 0.00 0.13 0.00 96 1006.3
20260507063507 52 185 0.0 2.0 0.00 0.13 0.00 96 1006.2
20260507063007 52 167 1.0 2.0 0.00 0.13 0.00 95 1006.5
20260507062503 52 167 1.0 4.0 0.00 0.13 0.00 96 1006.5
20260507062003 52 184 1.0 4.0 0.00 0.13 0.00 96 1006.8
20260507061504 52 189 1.0 2.0 0.00 0.13 0.00 96 1006.8
20260507061004 52 187 1.0 3.0 0.00 0.13 0.00 95 1006.8
20260507060505 52 188 1.0 3.0 0.00 0.13 0.00 95 1007.0
20260507060004 52 169 1.0 2.0 0.00 0.13 0.00 95 1007.1
20260507055504 53 203 1.0 2.0 0.00 0.13 0.00 95 1007.0
20260507055008 53 191 0.0 3.0 0.00 0.13 0.00 95 1007.3
20260507054507 53 195 1.0 3.0 0.00 0.13 0.00 95 1007.3
20260507054003 53 176 1.0 3.0 0.00 0.13 0.00 95 1007.3
20260507053505 53 184 1.0 5.0 0.00 0.13 0.00 95 1007.2
20260507053003 53 211 2.0 5.0 0.00 0.13 0.00 95 1007.3
20260507052503 53 205 1.0 3.0 0.00 0.13 0.00 96 1007.5
20260507052006 53 189 1.0 3.0 0.00 0.13 0.00 95 1007.5
20260507051506 53 160 1.0 7.0 0.00 0.13 0.00 95 1007.4
20260507051006 53 205 2.0 7.0 0.00 0.13 0.00 95 1007.7
20260507050505 53 181 1.0 3.0 0.00 0.13 0.00 95 1007.8
20260507050014 53 176 2.0 4.0 0.00 0.13 0.00 95 1007.8
20260507045505 54 155 1.0 4.0 0.00 0.13 0.00 95 1007.9
20260507045004 54 181 1.0 4.0 0.00 0.13 0.00 95 1007.7
20260507044508 54 177 2.0 4.0 0.00 0.13 0.00 96 1007.9
20260507044007 54 162 1.0 2.0 0.00 0.13 0.00 95 1007.8
20260507043507 54 186 1.0 2.0 0.00 0.13 0.00 95 1007.6
20260507043016 54 158 1.0 2.0 0.00 0.13 0.00 95 1007.7
20260507042509 54 176 1.0 4.0 0.00 0.13 0.00 95 1007.6
20260507042006 54 191 1.0 4.0 0.00 0.13 0.00 95 1007.7
20260507041509 54 158 1.0 3.0 0.00 0.13 0.00 95 1007.8
20260507041008 54 168 1.0 3.0 0.00 0.13 0.00 95 1008.0
20260507040506 54 205 1.0 4.0 0.00 0.13 0.00 95 1008.2
20260507040009 54 174 1.0 4.0 0.00 0.13 0.00 95 1008.3
20260507035510 54 191 1.0 6.0 0.00 0.13 0.13 95 1008.2
20260507035007 55 195 2.0 7.0 0.00 0.13 0.13 95 1008.1
20260507034520 55 204 3.0 7.0 0.00 0.13 0.13 95 1008.0
20260507034003 55 210 1.0 5.0 0.00 0.13 0.13 95 1008.2
20260507033503 55 181 1.0 5.0 0.00 0.13 0.13 95 1008.1
20260507033015 55 160 1.0 4.0 0.00 0.13 0.13 95 1008.2
20260507032507 55 172 2.0 4.0 0.00 0.13 0.13 95 1008.0
20260507032010 55 175 2.0 5.0 0.00 0.13 0.13 95 1007.9
20260507031512 55 174 2.0 4.0 0.00 0.13 0.13 95 1007.8
20260507031003 55 199 2.0 3.0 0.00 0.13 0.13 95 1007.9
20260507030509 55 179 2.0 4.0 0.00 0.13 0.13 95 1007.9
20260507030014 55 167 1.0 6.0 0.00 0.13 0.13 95 1007.9
20260507025505 55 168 1.0 6.0 0.00 0.13 0.13 95 1007.9
20260507025005 55 153 1.0 4.0 0.00 0.13 0.13 95 1007.9
20260507024515 55 148 2.0 4.0 0.00 0.13 0.13 95 1008.0
20260507024008 55 159 1.0 4.0 0.00 0.13 0.13 95 1008.1
20260507023504 55 187 1.0 4.0 0.00 0.13 0.13 95 1008.2
20260507023011 55 186 2.0 4.0 0.00 0.13 0.13 95 1008.3
20260507022505 55 154 1.0 4.0 0.00 0.13 0.13 95 1008.4
20260507022008 56 177 1.0 4.0 0.00 0.13 0.13 95 1008.4
20260507021514 56 153 2.0 4.0 0.00 0.13 0.13 95 1008.5
20260507021008 56 150 1.0 5.0 0.00 0.13 0.13 95 1008.6
20260507020507 56 143 2.0 5.0 0.00 0.13 0.13 95 1008.7
20260507020022 56 139 2.0 5.0 0.00 0.13 0.13 95 1008.6
20260507015506 56 180 2.0 5.0 0.00 0.13 0.13 95 1008.6
20260507015008 56 134 2.0 6.0 0.00 0.13 0.13 95 1008.7
20260507014516 56 193 1.0 6.0 0.00 0.13 0.13 95 1008.7
20260507014004 56 186 2.0 6.0 0.00 0.13 0.13 95 1008.8
20260507013505 56 175 3.0 7.0 0.01 0.13 0.13 95 1008.8
20260507013015 56 183 3.0 8.0 0.01 0.13 0.13 95 1008.9
20260507012504 56 172 2.0 8.0 0.01 0.13 0.13 95 1008.8
20260507012007 57 160 3.0 7.0 0.01 0.13 0.13 95 1008.7
20260507011523 56 148 2.0 5.0 0.01 0.13 0.13 95 1008.8
20260507011006 56 181 2.0 5.0 0.01 0.13 0.13 95 1008.8
20260507010507 57 168 2.0 6.0 0.02 0.13 0.13 95 1008.7
20260507010016 57 155 2.0 6.0 0.02 0.13 0.13 95 1008.8
20260507005507 57 153 2.0 6.0 0.02 0.13 0.13 95 1008.8
20260507005007 57 143 3.0 8.0 0.02 0.13 0.13 95 1008.7
20260507004516 57 145 2.0 8.0 0.02 0.13 0.13 95 1008.6
20260507004010 57 145 2.0 6.0 0.02 0.13 0.13 95 1008.5
20260507003508 57 157 3.0 6.0 0.02 0.12 0.12 95 1008.6
20260507003015 57 151 2.0 5.0 0.03 0.12 0.12 95 1008.7
20260507002506 57 132 2.0 6.0 0.03 0.12 0.12 95 1008.7
20260507002006 57 121 1.0 6.0 0.04 0.12 0.12 95 1008.8
20260507001543 57 183 3.0 5.0 0.05 0.12 0.12 95 1008.6
20260507001008 57 140 2.0 4.0 0.06 0.12 0.12 95 1008.7
20260507000507 57 169 2.0 4.0 0.06 0.11 0.11 95 1008.7
20260507000023 57 136 1.0 4.0 0.07 0.11 0.11 95 1008.7
20260506235506 56 195 1.0 4.0 0.07 0.11 0.11 95 1008.6
20260506235009 56 165 1.0 4.0 0.08 0.11 0.11 95 1008.5
20260506234518 56 162 1.0 3.0 0.08 0.11 0.11 94 1008.6
20260506234006 56 160 1.0 6.0 0.08 0.11 0.11 94 1008.7
20260506233506 56 113 1.0 6.0 0.08 0.10 0.10 94 1008.6
20260506233019 56 130 1.0 3.0 0.08 0.09 0.09 94 1008.6
20260506232509 57 114 1.0 5.0 0.09 0.09 0.09 94 1008.6
20260506232009 57 164 1.0 5.0 0.08 0.08 0.08 94 1008.7
20260506231520 57 190 1.0 5.0 0.07 0.07 0.07 94 1008.8
20260506231004 57 165 1.0 5.0 0.06 0.06 0.06 94 1008.9
20260506230509 57 173 2.0 5.0 0.05 0.05 0.05 93 1009.1
20260506230015 57 143 1.0 5.0 0.04 0.04 0.04 93 1009.2
20260506225503 57 164 1.0 5.0 0.04 0.04 0.04 93 1009.2
20260506225003 57 172 2.0 5.0 0.03 0.03 0.03 92 1009.1
20260506224501 57 186 2.0 4.0 0.03 0.03 0.03 92 1009.2
20260506224003 58 124 1.0 4.0 0.03 0.03 0.03 92 1009.3
20260506223503 58 171 2.0 4.0 0.02 0.02 0.02 91 1009.3
20260506223003 58 156 2.0 5.0 0.01 0.01 0.01 90 1009.4
20260506222505 58 158 2.0 5.0 0.00 0.00 0.00 89 1009.5
20260506222003 58 188 2.0 5.0 0.00 0.00 0.00 89 1009.4
20260506221511 58 190 1.0 4.0 0.00 0.00 0.00 89 1009.3
20260506221004 58 151 2.0 4.0 0.00 0.00 0.00 89 1009.3
20260506220507 59 167 1.0 4.0 0.00 0.00 0.00 88 1009.3
20260506220016 59 152 2.0 4.0 0.00 0.00 0.00 86 1009.2
20260506215507 60 143 2.0 4.0 0.00 0.00 0.00 84 1009.3
20260506215008 60 182 1.0 3.0 0.00 0.00 0.00 84 1009.2
20260506214517 60 168 2.0 3.0 0.00 0.00 0.00 83 1009.3
20260506214004 60 163 2.0 3.0 0.00 0.00 0.00 83 1009.3
20260506213505 60 139 1.0 4.0 0.00 0.00 0.00 84 1009.4
20260506213003 60 159 2.0 4.0 0.00 0.00 0.00 84 1009.5
20260506212504 60 168 1.0 4.0 0.00 0.00 0.00 83 1009.6
20260506212007 60 148 1.0 4.0 0.00 0.00 0.00 83 1009.6
20260506211506 60 134 2.0 4.0 0.00 0.00 0.00 82 1009.6
20260506211007 61 140 1.0 4.0 0.00 0.00 0.00 81 1009.5
20260506210507 61 180 1.0 5.0 0.00 0.00 0.00 80 1009.6
20260506210022 61 165 3.0 5.0 0.00 0.00 0.00 80 1009.8
20260506205509 61 162 2.0 4.0 0.00 0.00 0.00 80 1009.7
20260506205005 61 174 2.0 4.0 0.00 0.00 0.00 79 1009.6
20260506204516 61 126 1.0 4.0 0.00 0.00 0.00 79 1009.7
20260506204009 61 141 2.0 5.0 0.00 0.00 0.00 80 1009.8
20260506203511 62 184 2.0 5.0 0.00 0.00 0.00 79 1009.8
20260506203021 62 119 2.0 4.0 0.00 0.00 0.00 78 1009.9
20260506202503 62 169 2.0 4.0 0.00 0.00 0.00 78 1010.0
20260506202004 62 154 1.0 6.0 0.00 0.00 0.00 78 1009.9
20260506201506 62 180 1.0 6.0 0.00 0.00 0.00 78 1009.9
20260506201003 62 160 2.0 6.0 0.00 0.00 0.00 78 1009.8
20260506200504 62 113 2.0 6.0 0.00 0.00 0.00 78 1010.1
20260506200010 62 127 1.0 5.0 0.00 0.00 0.00 78 1010.2
20260506195504 61 283 1.0 5.0 0.00 0.00 0.00 78 1010.1
20260506195005 61 156 2.0 4.0 0.00 0.00 0.00 77 1010.2
20260506194516 61 172 2.0 4.0 0.00 0.00 0.00 77 1010.3
20260506194008 61 126 2.0 6.0 0.00 0.00 0.00 77 1010.5
20260506193507 61 158 2.0 6.0 0.00 0.00 0.00 77 1010.4
20260506193032 61 150 2.0 4.0 0.00 0.00 0.00 77 1010.4
20260506192510 61 145 1.0 4.0 0.00 0.00 0.00 77 1010.4
20260506192010 62 191 1.0 4.0 0.00 0.00 0.00 77 1010.4
20260506191524 62 74 2.0 4.0 0.00 0.00 0.00 76 1010.6
20260506191003 62 146 2.0 4.0 0.00 0.00 0.00 76 1010.4
20260506190502 62 134 1.0 5.0 0.00 0.00 0.00 76 1010.4
20260506190007 62 184 2.0 5.0 0.00 0.00 0.00 76 1010.3
20260506185510 63 138 2.0 5.0 0.00 0.00 0.00 74 1010.4
20260506185006 63 170 2.0 5.0 0.00 0.00 0.00 74 1010.5
20260506184515 63 162 2.0 5.0 0.00 0.00 0.00 75 1010.7
20260506184006 63 184 2.0 5.0 0.00 0.00 0.00 75 1010.7
20260506183507 63 154 2.0 5.0 0.00 0.00 0.00 75 1011.0
20260506183018 63 205 2.0 5.0 0.00 0.00 0.00 74 1011.0
20260506182511 63 147 1.0 7.0 0.00 0.00 0.00 74 1011.1
20260506182006 63 167 1.0 7.0 0.00 0.00 0.00 74 1011.1
20260506181534 64 174 2.0 5.0 0.00 0.00 0.00 73 1011.3
20260506181008 64 156 1.0 8.0 0.00 0.00 0.00 73 1011.4
20260506180509 64 131 3.0 8.0 0.00 0.00 0.00 73 1011.5
20260506180026 65 157 3.0 8.0 0.00 0.00 0.00 71 1011.6
20260506175502 66 172 2.0 6.0 0.00 0.00 0.00 71 1011.6
20260506175003 66 169 2.0 8.0 0.00 0.00 0.00 70 1011.8
20260506174509 67 168 3.0 8.0 0.00 0.00 0.00 70 1011.8
20260506174003 67 172 2.0 6.0 0.00 0.00 0.00 70 1011.8
20260506173509 67 134 3.0 6.0 0.00 0.00 0.00 69 1011.7
20260506173016 67 139 2.0 6.0 0.00 0.00 0.00 70 1011.8
20260506172507 68 162 3.0 6.0 0.00 0.00 0.00 68 1011.7
20260506172011 68 198 2.0 7.0 0.00 0.00 0.00 68 1011.6
20260506171520 68 137 2.0 7.0 0.00 0.00 0.00 70 1011.8
20260506171011 67 161 3.0 7.0 0.00 0.00 0.00 70 1011.9
20260506170508 66 105 3.0 7.0 0.00 0.00 0.00 72 1011.9
20260506170028 65 178 2.0 7.0 0.00 0.00 0.00 73 1012.2
20260506165510 65 203 3.0 7.0 0.00 0.00 0.00 73 1012.4
20260506165009 65 136 2.0 8.0 0.00 0.00 0.00 73 1012.3
20260506164544 65 164 3.0 13.0 0.00 0.00 0.00 73 1012.4
20260506164006 65 179 3.0 13.0 0.00 0.00 0.00 73 1012.4
20260506163505 65 195 3.0 9.0 0.00 0.00 0.00 72 1012.4
20260506163014 66 200 4.0 9.0 0.00 0.00 0.00 71 1012.4
20260506162508 66 160 3.0 9.0 0.00 0.00 0.00 71 1012.7
20260506162010 66 158 3.0 9.0 0.00 0.00 0.00 71 1012.6
20260506161521 67 186 3.0 6.0 0.00 0.00 0.00 69 1012.7
20260506161010 68 159 3.0 7.0 0.00 0.00 0.00 68 1012.8
20260506160506 69 159 2.0 10.0 0.00 0.00 0.00 68 1012.6
20260506160020 68 141 2.0 10.0 0.00 0.00 0.00 69 1012.9
20260506155508 68 158 3.0 6.0 0.00 0.00 0.00 68 1012.8
20260506155010 68 170 3.0 5.0 0.00 0.00 0.00 69 1013.0
20260506154528 67 144 2.0 7.0 0.00 0.00 0.00 71 1013.1
20260506154009 67 206 3.0 7.0 0.00 0.00 0.00 69 1013.2
20260506153511 68 177 3.0 5.0 0.00 0.00 0.00 68 1013.3
20260506153027 68 145 2.0 6.0 0.00 0.00 0.00 69 1013.3
20260506152505 68 147 3.0 6.0 0.00 0.00 0.00 69 1013.5
20260506152006 67 133 3.0 6.0 0.00 0.00 0.00 70 1013.5